Location: Saint Louis
(38.6272°N, 90.1978°W)
Time: 22:36:10
(UTC-06:00)

Hubble Space Telescope - Visible Passes

Search period start: 18 December 2014 00:00
Search period end: 28 December 2014 00:00
Orbit: 545 x 549 km, 28.5° (Epoch: 18 December)

Date Brightness Start Highest point End Pass type
(mag) Time Alt. Az. Time Alt. Az. Time Alt. Az.
18 Dec 3.0 17:20:53 10° SW 17:23:57 20° S 17:27:01 10° SE visible
18 Dec 3.1 19:02:07 10° SW 19:04:42 16° SSW 19:04:48 16° S visible
19 Dec 3.0 17:13:02 10° SW 17:16:07 20° S 17:19:11 10° SE visible
19 Dec 3.2 18:54:37 10° SW 18:56:51 14° SSW 18:57:46 13° S visible
20 Dec 3.5 18:47:20 10° SW 18:48:58 12° SSW 18:50:36 10° S visible
